Weather History for Minneapolis Flying Cloud, MN

Change the Weather History Date:

Thursday, December 13, 2012

  Actual Average Record
Temperature  
Mean Temperature 30 °F -  
Max Temperature 37 °F 30 °F 48 °F (1998)
Min Temperature 21 °F 16 °F -9 °F (2010)
Degree Days  
Heating Degree Days 35    
Moisture  
Dew Point 20 °F    
Average Humidity 67    
Maximum Humidity 92    
Minimum Humidity 54    
Precipitation  
Precipitation 0.00 in - - ()
Sea Level Pressure  
Sea Level Pressure 30.02 in    
Wind  
Wind Speed 6 mph (WSW)    
Max Wind Speed 12 mph    
Max Gust Speed -    
Visibility 8 miles    
Events      
Averages and records for this station are not official NWS values.
T = Trace of Precipitation, MM = Missing Value Source: NWS Daily Summary

Daily Weather History Graph

Daily Weather History Graph

Search for Another Location

Airport:

Trip Planner

Search our weather history database for the weather conditions in past years. The results will help you decide how hot, cold, wet, or windy it might be!

Date:

Astronomy

Dec. 13, 2012 Rise Set
Actual Time 7:43 AM CST 4:33 PM CST
Civil Twilight 7:09 AM CST 5:06 PM CST
Nautical Twilight 6:32 AM CST 5:43 PM CST
Astronomical Twilight 5:57 AM CST 6:19 PM CST
Moon 7:51 AM CST (12/13) 5:17 PM CST (12/13)
Length of Visible Light 9h 56m
Length of Day
8h 49m
New Moon, 0% of the Moon is Illuminated
Dec 13
New Moon
Dec 19
First Quarter
Dec 28
Full
Jan 4
Last Quarter
Jan 11
New

Hourly Weather History & Observations

Time (CST) Temp. Windchill Dew Point Humidity Pressure Visibility Wind Dir Wind Speed Gust Speed Precip Events Conditions
12:53 AM 37.0 °F 29.8 °F 21.9 °F 54% 29.93 in 10.0 mi SSW 10.4 mph - N/A   Clear
1:53 AM 36.0 °F 28.0 °F 21.9 °F 57% 29.94 in 10.0 mi SSW 11.5 mph - N/A   Clear
2:53 AM 35.1 °F 28.6 °F 21.0 °F 57% 29.94 in 10.0 mi South 8.1 mph - N/A   Clear
3:53 AM 34.0 °F 25.5 °F 19.9 °F 56% 29.94 in 10.0 mi South 11.5 mph - N/A   Clear
4:53 AM 32.0 °F 24.8 °F 19.0 °F 59% 29.94 in 10.0 mi South 8.1 mph - N/A   Clear
5:53 AM 30.0 °F 22.4 °F 18.0 °F 61% 29.94 in 10.0 mi SSW 8.1 mph - N/A   Clear
6:53 AM 30.0 °F 23.2 °F 17.1 °F 59% 29.95 in 10.0 mi SSW 6.9 mph - N/A   Clear
7:53 AM 28.9 °F 25.2 °F 17.1 °F 61% 29.96 in 10.0 mi SSW 3.5 mph - N/A   Clear
8:53 AM 28.9 °F 25.2 °F 18.0 °F 64% 29.99 in 10.0 mi NNW 3.5 mph - N/A   Clear
9:53 AM 30.0 °F - 18.0 °F 61% 30.00 in 10.0 mi Calm Calm - N/A   Clear
10:53 AM 30.0 °F - 19.0 °F 64% 30.01 in 10.0 mi Calm Calm - N/A   Clear
11:53 AM 32.0 °F 28.7 °F 19.0 °F 59% 30.02 in 10.0 mi NW 3.5 mph - N/A   Clear
12:53 PM 33.1 °F 30.0 °F 21.0 °F 61% 30.02 in 10.0 mi NW 3.5 mph - N/A   Clear
1:53 PM 36.0 °F - 21.0 °F 55% 30.02 in 10.0 mi Calm Calm - N/A   Clear
2:53 PM 35.1 °F 32.2 °F 21.9 °F 59% 30.04 in 10.0 mi ENE 3.5 mph - N/A   Clear
3:53 PM 34.0 °F 28.0 °F 23.0 °F 64% 30.06 in 9.0 mi NNW 6.9 mph - N/A   Clear
6:53 PM 28.0 °F - 23.0 °F 81% 30.12 in 6.0 mi Calm Calm - N/A   Haze
7:53 PM 26.1 °F - 21.9 °F 84% 30.13 in 5.0 mi Calm Calm - N/A   Clear
8:53 PM 25.0 °F 20.7 °F 21.9 °F 88% 30.12 in 5.0 mi NNE 3.5 mph - N/A   Clear
9:53 PM 23.0 °F 18.4 °F 19.9 °F 88% 30.14 in 3.0 mi North 3.5 mph - N/A   Clear
10:53 PM 23.0 °F 17.0 °F 21.0 °F 92% 30.14 in 4.0 mi North 4.6 mph - N/A   Clear
11:53 PM 21.0 °F - 18.0 °F 88% 30.16 in 3.0 mi Calm Calm - N/A   Clear